| time (UTC) | temp C | wind direction | speed KPH | gust KPH | rain 1hr cm | rain 24hr cm | rain mn cm | humidity % | barometer mb |
| 20260504081708 | 12 | 206 | 12.9 | 16.1 | 0.00 | 0.00 | 0.00 | 63 | 1011.6 |
| 20260504081205 | 12 | 216 | 11.3 | 12.9 | 0.00 | 0.00 | 0.00 | 63 | 1011.9 |
| 20260504080701 | 12 | 203 | 4.8 | 9.7 | 0.00 | 0.00 | 0.00 | 63 | 1011.9 |
| 20260504080157 | 12 | 207 | 6.4 | 6.4 | 0.00 | 0.00 | 0.00 | 63 | 1012.0 |
| 20260504070125 | 12 | 192 | 11.3 | 14.5 | 0.00 | 0.00 | 0.00 | 61 | 1012.5 |
| 20260504050514 | 14 | 200 | 6.4 | 6.4 | 0.00 | 0.00 | 0.00 | 55 | 1013.3 |
| 20260504050011 | 14 | 200 | 11.3 | 14.5 | 0.00 | 0.00 | 0.00 | 54 | 1013.5 |
| 20260504045508 | 14 | 220 | 4.8 | 4.8 | 0.00 | 0.00 | 0.00 | 55 | 1013.7 |
| 20260504045003 | 14 | 220 | 11.3 | 20.9 | 0.00 | 0.00 | 0.00 | 55 | 1013.8 |
| 20260504044501 | 14 | 209 | 3.2 | 4.8 | 0.00 | 0.00 | 0.00 | 55 | 1013.8 |
| 20260504043958 | 14 | 223 | 6.4 | 11.3 | 0.00 | 0.00 | 0.00 | 55 | 1013.9 |
| 20260504043455 | 14 | 219 | 4.8 | 6.4 | 0.00 | 0.00 | 0.00 | 54 | 1013.8 |
| 20260504042952 | 14 | 201 | 8.0 | 11.3 | 0.00 | 0.00 | 0.00 | 54 | 1013.9 |
| 20260504042448 | 14 | 214 | 8.0 | 11.3 | 0.00 | 0.00 | 0.00 | 54 | 1014.0 |
| 20260504041945 | 14 | 192 | 3.2 | 4.8 | 0.00 | 0.00 | 0.00 | 54 | 1013.9 |
| 20260504041441 | 14 | 237 | 4.8 | 4.8 | 0.00 | 0.00 | 0.00 | 54 | 1013.9 |
| 20260504040937 | 14 | 199 | 12.9 | 14.5 | 0.00 | 0.00 | 0.00 | 54 | 1014.0 |
| 20260504040435 | 14 | 193 | 6.4 | 6.4 | 0.00 | 0.00 | 0.00 | 54 | 1014.1 |
| 20260504035931 | 14 | 182 | 3.2 | 4.8 | 0.00 | 0.00 | 0.00 | 55 | 1014.1 |
| 20260504035429 | 13 | 195 | 6.4 | 9.7 | 0.00 | 0.00 | 0.00 | 55 | 1013.9 |
| 20260504034925 | 13 | 213 | 4.8 | 6.4 | 0.00 | 0.00 | 0.00 | 55 | 1014.1 |
| 20260504034423 | 13 | 196 | 6.4 | 9.7 | 0.00 | 0.00 | 0.00 | 55 | 1014.2 |
| 20260504033920 | 13 | 211 | 1.6 | 3.2 | 0.00 | 0.00 | 0.00 | 56 | 1014.1 |
| 20260504033418 | 13 | 194 | 3.2 | 3.2 | 0.00 | 0.00 | 0.00 | 56 | 1014.3 |
| 20260504032914 | 14 | 218 | 1.6 | 1.6 | 0.00 | 0.00 | 0.00 | 57 | 1014.4 |
| 20260504032411 | 14 | 193 | 3.2 | 3.2 | 0.00 | 0.00 | 0.00 | 54 | 1014.5 |
| 20260504031908 | 14 | 203 | 0.0 | 0.0 | 0.00 | 0.00 | 0.00 | 55 | 1014.4 |
| 20260504031405 | 14 | 209 | 1.6 | 1.6 | 0.00 | 0.00 | 0.00 | 54 | 1014.5 |
| 20260504030901 | 15 | 209 | 3.2 | 3.2 | 0.00 | 0.00 | 0.00 | 53 | 1014.7 |
| 20260504030359 | 15 | 195 | 3.2 | 4.8 | 0.00 | 0.00 | 0.00 | 52 | 1014.6 |
| 20260504025854 | 15 | 217 | 1.6 | 3.2 | 0.00 | 0.00 | 0.00 | 51 | 1014.3 |
| 20260504025352 | 15 | 238 | 3.2 | 4.8 | 0.00 | 0.00 | 0.00 | 50 | 1014.1 |
| 20260504024848 | 15 | 193 | 3.2 | 3.2 | 0.00 | 0.00 | 0.00 | 50 | 1014.2 |
| 20260504024345 | 15 | 204 | 9.7 | 11.3 | 0.00 | 0.00 | 0.00 | 50 | 1013.9 |
| 20260504023842 | 15 | 197 | 9.7 | 11.3 | 0.00 | 0.00 | 0.00 | 49 | 1013.8 |
| 20260504023339 | 15 | 206 | 9.7 | 11.3 | 0.00 | 0.00 | 0.00 | 49 | 1013.8 |
| 20260504022834 | 16 | 192 | 4.8 | 6.4 | 0.00 | 0.00 | 0.00 | 48 | 1013.6 |
| 20260504022331 | 16 | 220 | 6.4 | 9.7 | 0.00 | 0.00 | 0.00 | 48 | 1013.5 |
| 20260504021828 | 16 | 211 | 12.9 | 16.1 | 0.00 | 0.00 | 0.00 | 48 | 1013.3 |
| 20260504021325 | 16 | 221 | 16.1 | 22.5 | 0.00 | 0.00 | 0.00 | 48 | 1013.4 |
| 20260504020822 | 16 | 205 | 17.7 | 20.9 | 0.00 | 0.00 | 0.00 | 48 | 1013.3 |
| 20260504020319 | 16 | 206 | 11.3 | 14.5 | 0.00 | 0.00 | 0.00 | 48 | 1013.5 |
| 20260504015815 | 16 | 200 | 14.5 | 16.1 | 0.00 | 0.00 | 0.00 | 47 | 1013.4 |
| 20260504015311 | 16 | 188 | 8.0 | 9.7 | 0.00 | 0.00 | 0.00 | 48 | 1013.0 |
| 20260504014808 | 16 | 174 | 14.5 | 16.1 | 0.00 | 0.00 | 0.00 | 48 | 1013.5 |
| 20260504014303 | 16 | 209 | 6.4 | 6.4 | 0.00 | 0.00 | 0.00 | 48 | 1013.6 |
| 20260504013801 | 15 | 178 | 11.3 | 12.9 | 0.00 | 0.00 | 0.00 | 49 | 1013.6 |
| 20260504013259 | 16 | 200 | 9.7 | 11.3 | 0.00 | 0.00 | 0.00 | 49 | 1013.8 |
| 20260504012755 | 16 | 219 | 8.0 | 9.7 | 0.00 | 0.00 | 0.00 | 49 | 1013.7 |
| 20260504012254 | 16 | 202 | 6.4 | 6.4 | 0.00 | 0.00 | 0.00 | 49 | 1013.7 |
| 20260504011750 | 16 | 188 | 8.0 | 9.7 | 0.00 | 0.00 | 0.00 | 48 | 1013.8 |
| 20260504011247 | 16 | 200 | 8.0 | 11.3 | 0.00 | 0.00 | 0.00 | 48 | 1013.9 |
| 20260504010743 | 16 | 205 | 6.4 | 11.3 | 0.00 | 0.00 | 0.00 | 48 | 1014.1 |
| 20260504010238 | 16 | 203 | 4.8 | 4.8 | 0.00 | 0.00 | 0.00 | 48 | 1014.1 |
| 20260504005735 | 16 | 212 | 4.8 | 6.4 | 0.00 | 0.00 | 0.00 | 48 | 1014.0 |
| 20260504005233 | 16 | 210 | 6.4 | 9.7 | 0.00 | 0.00 | 0.00 | 47 | 1014.0 |
| 20260504004730 | 16 | 191 | 4.8 | 4.8 | 0.00 | 0.00 | 0.00 | 47 | 1013.9 |
| 20260504004227 | 16 | 205 | 6.4 | 6.4 | 0.00 | 0.00 | 0.00 | 47 | 1014.0 |
| 20260504003723 | 16 | 203 | 6.4 | 6.4 | 0.00 | 0.00 | 0.00 | 47 | 1014.0 |
| 20260504003221 | 17 | 214 | 9.7 | 12.9 | 0.00 | 0.00 | 0.00 | 46 | 1013.9 |
| 20260504002717 | 17 | 215 | 6.4 | 6.4 | 0.00 | 0.00 | 0.00 | 46 | 1013.7 |
| 20260504002214 | 17 | 227 | 4.8 | 4.8 | 0.00 | 0.00 | 0.00 | 46 | 1013.5 |
| 20260504001712 | 17 | 161 | 8.0 | 12.9 | 0.00 | 0.00 | 0.00 | 45 | 1013.8 |
| 20260504001209 | 17 | 205 | 8.0 | 9.7 | 0.00 | 0.00 | 0.00 | 45 | 1013.8 |
| 20260504000705 | 17 | 194 | 9.7 | 11.3 | 0.00 | 0.00 | 0.00 | 44 | 1013.8 |
| 20260504000204 | 17 | 207 | 9.7 | 9.7 | 0.00 | 0.00 | 0.00 | 43 | 1013.9 |
| 20260503235701 | 17 | 200 | 6.4 | 6.4 | 0.00 | 0.00 | 0.00 | 43 | 1013.9 |
| 20260503235157 | 17 | 205 | 11.3 | 12.9 | 0.00 | 0.00 | 0.00 | 43 | 1014.0 |
| 20260503234655 | 18 | 218 | 4.8 | 4.8 | 0.00 | 0.00 | 0.00 | 43 | 1014.1 |
| 20260503234153 | 18 | 252 | 9.7 | 14.5 | 0.00 | 0.00 | 0.00 | 42 | 1014.0 |
| 20260503233649 | 18 | 221 | 9.7 | 11.3 | 0.00 | 0.00 | 0.00 | 41 | 1014.2 |
| 20260503233145 | 18 | 212 | 6.4 | 9.7 | 0.00 | 0.00 | 0.00 | 41 | 1014.2 |
| 20260503232642 | 18 | 200 | 11.3 | 12.9 | 0.00 | 0.00 | 0.00 | 41 | 1014.1 |
| 20260503232140 | 18 | 221 | 6.4 | 6.4 | 0.00 | 0.00 | 0.00 | 41 | 1014.3 |
| 20260503231638 | 18 | 192 | 8.0 | 9.7 | 0.00 | 0.00 | 0.00 | 40 | 1014.5 |
| 20260503231134 | 18 | 184 | 9.7 | 12.9 | 0.00 | 0.00 | 0.00 | 39 | 1014.5 |
| 20260503230631 | 18 | 243 | 6.4 | 9.7 | 0.00 | 0.00 | 0.00 | 40 | 1014.4 |
| 20260503230128 | 18 | 173 | 6.4 | 9.7 | 0.00 | 0.00 | 0.00 | 41 | 1014.4 |
| 20260503225626 | 18 | 203 | 16.1 | 16.1 | 0.00 | 0.00 | 0.00 | 39 | 1014.7 |
| 20260503225125 | 18 | 212 | 8.0 | 11.3 | 0.00 | 0.00 | 0.00 | 39 | 1014.9 |
| 20260503224623 | 18 | 189 | 9.7 | 12.9 | 0.00 | 0.00 | 0.00 | 38 | 1014.9 |
| 20260503224121 | 18 | 200 | 11.3 | 12.9 | 0.00 | 0.00 | 0.00 | 39 | 1014.9 |
| 20260503223618 | 18 | 203 | 9.7 | 12.9 | 0.00 | 0.00 | 0.00 | 39 | 1014.8 |
| 20260503223114 | 19 | 205 | 6.4 | 6.4 | 0.00 | 0.00 | 0.00 | 39 | 1014.9 |
| 20260503222612 | 18 | 216 | 4.8 | 6.4 | 0.00 | 0.00 | 0.00 | 41 | 1015.1 |
| 20260503222110 | 18 | 190 | 8.0 | 9.7 | 0.00 | 0.00 | 0.00 | 40 | 1015.4 |
| 20260503221608 | 19 | 270 | 9.7 | 11.3 | 0.00 | 0.00 | 0.00 | 37 | 1015.5 |
| 20260503221105 | 19 | 209 | 4.8 | 4.8 | 0.00 | 0.00 | 0.00 | 40 | 1015.4 |
| 20260503220601 | 19 | 212 | 4.8 | 9.7 | 0.00 | 0.00 | 0.00 | 40 | 1015.5 |
| 20260503220058 | 18 | 186 | 8.0 | 12.9 | 0.00 | 0.00 | 0.00 | 40 | 1015.7 |
| 20260503215555 | 19 | 196 | 17.7 | 20.9 | 0.00 | 0.00 | 0.00 | 37 | 1015.6 |
| 20260503215052 | 19 | 213 | 12.9 | 14.5 | 0.00 | 0.00 | 0.00 | 39 | 1015.6 |
| 20260503214550 | 18 | 220 | 8.0 | 14.5 | 0.00 | 0.00 | 0.00 | 38 | 1015.8 |
| 20260503214046 | 18 | 198 | 9.7 | 12.9 | 0.00 | 0.00 | 0.00 | 39 | 1015.8 |
| 20260503213545 | 18 | 227 | 9.7 | 9.7 | 0.00 | 0.00 | 0.00 | 38 | 1015.9 |
| 20260503213041 | 18 | 212 | 12.9 | 16.1 | 0.00 | 0.00 | 0.00 | 38 | 1016.1 |
| 20260503212539 | 18 | 219 | 6.4 | 9.7 | 0.00 | 0.00 | 0.00 | 39 | 1016.1 |
| 20260503212036 | 18 | 217 | 11.3 | 12.9 | 0.00 | 0.00 | 0.00 | 39 | 1015.9 |
| 20260503211533 | 18 | 218 | 1.6 | 3.2 | 0.00 | 0.00 | 0.00 | 38 | 1016.3 |
| 20260503211028 | 18 | 232 | 9.7 | 12.9 | 0.00 | 0.00 | 0.00 | 40 | 1016.4 |
| 20260503210525 | 18 | 218 | 8.0 | 11.3 | 0.00 | 0.00 | 0.00 | 42 | 1016.4 |
| 20260503210021 | 18 | 211 | 12.9 | 14.5 | 0.00 | 0.00 | 0.00 | 39 | 1016.4 |
| 20260503205518 | 18 | 205 | 1.6 | 3.2 | 0.00 | 0.00 | 0.00 | 41 | 1016.4 |
| 20260503205014 | 18 | 218 | 8.0 | 11.3 | 0.00 | 0.00 | 0.00 | 41 | 1016.7 |
| 20260503204512 | 18 | 242 | 8.0 | 11.3 | 0.00 | 0.00 | 0.00 | 39 | 1016.7 |
| 20260503204008 | 18 | 203 | 9.7 | 16.1 | 0.00 | 0.00 | 0.00 | 39 | 1016.8 |
| 20260503203506 | 18 | 229 | 9.7 | 11.3 | 0.00 | 0.00 | 0.00 | 39 | 1016.8 |
| 20260503203002 | 18 | 228 | 9.7 | 12.9 | 0.00 | 0.00 | 0.00 | 38 | 1017.0 |
| 20260503202500 | 18 | 209 | 8.0 | 11.3 | 0.00 | 0.00 | 0.00 | 40 | 1017.1 |
| 20260503201958 | 18 | 234 | 6.4 | 6.4 | 0.00 | 0.00 | 0.00 | 42 | 1017.1 |
| 20260503201456 | 18 | 213 | 17.7 | 24.1 | 0.00 | 0.00 | 0.00 | 39 | 1017.3 |
| 20260503200953 | 18 | 266 | 4.8 | 6.4 | 0.00 | 0.00 | 0.00 | 41 | 1017.2 |
| 20260503200449 | 18 | 213 | 24.1 | 27.4 | 0.00 | 0.00 | 0.00 | 38 | 1017.5 |
| 20260503195946 | 18 | 196 | 8.0 | 9.7 | 0.00 | 0.00 | 0.00 | 38 | 1017.7 |
| 20260503195443 | 18 | 172 | 8.0 | 11.3 | 0.00 | 0.00 | 0.00 | 40 | 1017.8 |
| 20260503194939 | 18 | 221 | 6.4 | 6.4 | 0.00 | 0.00 | 0.00 | 42 | 1018.0 |
| 20260503194437 | 17 | 214 | 9.7 | 11.3 | 0.00 | 0.00 | 0.00 | 41 | 1017.9 |
| 20260503193932 | 17 | 236 | 8.0 | 11.3 | 0.00 | 0.00 | 0.00 | 40 | 1018.2 |
| 20260503193428 | 17 | 222 | 9.7 | 11.3 | 0.00 | 0.00 | 0.00 | 41 | 1018.2 |
| 20260503192923 | 18 | 189 | 4.8 | 4.8 | 0.00 | 0.00 | 0.00 | 43 | 1018.7 |
| 20260503192420 | 18 | 185 | 3.2 | 4.8 | 0.00 | 0.00 | 0.00 | 43 | 1018.6 |
| 20260503191916 | 17 | 210 | 11.3 | 12.9 | 0.00 | 0.00 | 0.00 | 43 | 1018.8 |
| 20260503191414 | 17 | 162 | 9.7 | 11.3 | 0.00 | 0.00 | 0.00 | 42 | 1018.8 |
| 20260503190910 | 17 | 204 | 6.4 | 6.4 | 0.00 | 0.00 | 0.00 | 44 | 1018.9 |
| 20260503190407 | 17 | 226 | 8.0 | 11.3 | 0.00 | 0.00 | 0.00 | 44 | 1019.1 |
| 20260503185903 | 17 | 226 | 1.6 | 3.2 | 0.00 | 0.00 | 0.00 | 48 | 1019.1 |
| 20260503185400 | 17 | 202 | 9.7 | 14.5 | 0.00 | 0.00 | 0.00 | 43 | 1019.0 |
| 20260503184859 | 17 | 176 | 4.8 | 6.4 | 0.00 | 0.00 | 0.00 | 45 | 1019.1 |
| 20260503184356 | 17 | 217 | 6.4 | 6.4 | 0.00 | 0.00 | 0.00 | 42 | 1019.1 |
| 20260503183852 | 16 | 319 | 8.0 | 9.7 | 0.00 | 0.00 | 0.00 | 44 | 1019.2 |
| 20260503183349 | 16 | 196 | 11.3 | 12.9 | 0.00 | 0.00 | 0.00 | 44 | 1019.4 |
| 20260503182847 | 16 | 196 | 8.0 | 11.3 | 0.00 | 0.00 | 0.00 | 43 | 1019.4 |
| 20260503182346 | 16 | 195 | 3.2 | 3.2 | 0.00 | 0.00 | 0.00 | 41 | 1019.4 |
| 20260503181842 | 16 | 213 | 6.4 | 6.4 | 0.00 | 0.00 | 0.00 | 45 | 1019.3 |
| 20260503181339 | 16 | 142 | 6.4 | 11.3 | 0.00 | 0.00 | 0.00 | 44 | 1019.5 |
| 20260503180836 | 16 | 206 | 6.4 | 9.7 | 0.00 | 0.00 | 0.00 | 42 | 1019.5 |
| 20260503180334 | 16 | 207 | 11.3 | 14.5 | 0.00 | 0.00 | 0.00 | 43 | 1019.5 |
| 20260503175830 | 16 | 173 | 4.8 | 4.8 | 0.00 | 0.00 | 0.00 | 42 | 1019.5 |
| 20260503175328 | 16 | 196 | 6.4 | 9.7 | 0.00 | 0.00 | 0.00 | 42 | 1019.8 |
| 20260503174823 | 16 | 212 | 11.3 | 14.5 | 0.00 | 0.00 | 0.00 | 42 | 1019.8 |
| 20260503174322 | 16 | 214 | 3.2 | 9.7 | 0.00 | 0.00 | 0.00 | 44 | 1019.8 |
| 20260503173817 | 16 | 199 | 8.0 | 9.7 | 0.00 | 0.00 | 0.00 | 40 | 1019.9 |
| 20260503173314 | 16 | 209 | 4.8 | 6.4 | 0.00 | 0.00 | 0.00 | 40 | 1019.8 |
| 20260503172810 | 16 | 215 | 3.2 | 3.2 | 0.00 | 0.00 | 0.00 | 42 | 1019.9 |
| 20260503172308 | 16 | 124 | 3.2 | 4.8 | 0.00 | 0.00 | 0.00 | 47 | 1020.0 |
| 20260503171804 | 15 | 192 | 3.2 | 3.2 | 0.00 | 0.00 | 0.00 | 42 | 1020.2 |
| 20260503171301 | 15 | 208 | 4.8 | 6.4 | 0.00 | 0.00 | 0.00 | 46 | 1020.1 |
| 20260503170758 | 15 | 207 | 6.4 | 9.7 | 0.00 | 0.00 | 0.00 | 43 | 1020.0 |
| 20260503170254 | 15 | 207 | 9.7 | 14.5 | 0.00 | 0.00 | 0.00 | 43 | 1020.3 |
| 20260503160217 | 14 | 192 | 8.0 | 11.3 | 0.00 | 0.00 | 0.00 | 43 | 1021.0 |
| 20260503150647 | 13 | 173 | 9.7 | 12.9 | 0.00 | 0.00 | 0.00 | 51 | 1021.1 |
| 20260503150143 | 13 | 188 | 4.8 | 4.8 | 0.00 | 0.00 | 0.00 | 57 | 1021.3 |
| 20260503140107 | 12 | 200 | 3.2 | 3.2 | 0.00 | 0.00 | 0.00 | 67 | 1021.2 |
| 20260503131037 | 11 | 129 | 0.0 | 0.0 | 0.00 | 0.00 | 0.00 | 73 | 1021.1 |
| 20260503130534 | 11 | 159 | 0.0 | 0.0 | 0.00 | 0.00 | 0.00 | 78 | 1021.3 |
| 20260503110424 | 3 | 265 | 0.0 | 0.0 | 0.00 | 0.00 | 0.00 | 99 | 1020.0 |